Weather History for KPRG - June, 2013

Change the Weather History Date:

Wednesday, June 5, 2013

  Actual Average (KHUF) Record (KHUF)
Temperature  
Mean Temperature 68 °F 70 °F  
Max Temperature 79 °F 80 °F 91 °F (1972)
Min Temperature 56 °F 59 °F 43 °F (1990)
Degree Days  
Heating Degree Days 0 1  
Month to date heating degree days 5  
Since 1 June heating degree days 5  
Since 1 July heating degree days 5360  
Cooling Degree Days 2 6  
Month to date cooling degree days 26  
Year to date cooling degree days 112  
Since 1 June cooling degree days 26  
Growing Degree Days 18 (Base 50)    
Moisture  
Dew Point 56 °F    
Average Humidity 66    
Maximum Humidity 88    
Minimum Humidity 42    
Precipitation  
Precipitation 0.00 in 0.20 in 1.21 in (2001)
Month to date precipitation 0.99  
Year to date precipitation 19.43  
Sea Level Pressure  
Sea Level Pressure 29.98 in    
Wind  
Wind Speed 3 mph (East)    
Max Wind Speed 8 mph    
Max Gust Speed -    
Visibility 9 miles    
Events      
T = Trace of Precipitation, MM = Missing Value Source: NWS Daily Summary

Daily Weather History Graph

Daily Weather History Graph

Search for Another Location

Airport or City:

Trip Planner

Search our weather history database for the weather conditions in past years. The results will help you decide how hot, cold, wet, or windy it might be!

Date:

Astronomy

Jun. 05, 2013 Rise Set
Actual Time 5:23 AM CDT 8:15 PM CDT
Civil Twilight 4:51 AM CDT 8:47 PM CDT
Nautical Twilight 4:10 AM CDT 9:28 PM CDT
Astronomical Twilight 3:24 AM CDT 10:15 PM CDT
Moon 3:26 AM CDT (6/5) 5:41 PM CDT (6/5)
Length of Visible Light 15h 56m
Length of Day
14h 52m
Waning Crescent, 8% of the Moon is Illuminated
Jun 5
Waning Crescent
Jun 8
New
Jun 16
First Quarter
Jun 23
Full
Jun 29
Last Quarter

Hourly Weather History & Observations

Time (CDT) Temp. Dew Point Humidity Pressure Visibility Wind Dir Wind Speed Gust Speed Precip Events Conditions
12:15 AM 59.2 °F 55.8 °F 88% 30.07 in 7.0 mi East 3.5 mph - N/A   Clear
12:35 AM 60.3 °F 54.0 °F 80% 30.07 in 7.0 mi Calm Calm - N/A   Clear
12:55 AM 60.4 °F 54.5 °F 81% 30.07 in 10.0 mi Calm Calm - N/A   Clear
1:15 AM 60.3 °F 54.0 °F 80% 30.06 in 7.0 mi Calm Calm - N/A   Clear
1:35 AM 59.7 °F 53.8 °F 81% 30.05 in 10.0 mi Calm Calm - N/A   Clear
1:55 AM 58.6 °F 54.1 °F 85% 30.05 in 10.0 mi East 4.6 mph - N/A   Clear
2:15 AM 58.6 °F 53.8 °F 84% 30.04 in 10.0 mi East 3.5 mph - N/A   Clear
2:35 AM 59.2 °F 52.5 °F 79% 30.04 in 10.0 mi East 4.6 mph - N/A   Clear
2:55 AM 58.6 °F 52.9 °F 81% 30.03 in 10.0 mi East 4.6 mph - N/A   Clear
3:15 AM 58.6 °F 52.3 °F 80% 30.03 in 10.0 mi East 4.6 mph - N/A   Clear
3:35 AM 58.3 °F 52.0 °F 80% 30.04 in 10.0 mi Calm Calm - N/A   Clear
3:55 AM 59.0 °F 50.9 °F 74% 30.04 in 10.0 mi Calm Calm - N/A   Clear
4:15 AM 57.2 °F 53.1 °F 86% 30.04 in 10.0 mi ENE 3.5 mph - N/A   Clear
4:35 AM 57.2 °F 52.7 °F 85% 30.05 in 7.0 mi Calm Calm - N/A   Clear
4:55 AM 56.7 °F 52.7 °F 87% 30.05 in 10.0 mi Calm Calm - N/A   Mostly Cloudy
5:15 AM 58.1 °F 52.0 °F 80% 30.06 in 10.0 mi Calm Calm - N/A   Mostly Cloudy
5:35 AM 58.1 °F 52.7 °F 82% 30.05 in 10.0 mi East 3.5 mph - N/A   Scattered Clouds
5:55 AM 57.7 °F 52.9 °F 84% 30.05 in 7.0 mi ENE 3.5 mph - N/A   Clear
6:15 AM 58.3 °F 53.1 °F 83% 30.07 in 7.0 mi Calm Calm - N/A   Scattered Clouds
6:35 AM 59.0 °F 52.5 °F 79% 30.07 in 10.0 mi Calm Calm - N/A   Scattered Clouds
6:55 AM 59.5 °F 53.6 °F 81% 30.05 in 7.0 mi East 3.5 mph - N/A   Scattered Clouds
7:15 AM 60.6 °F 53.4 °F 77% 30.05 in 7.0 mi East 5.8 mph - N/A   Scattered Clouds
7:35 AM 61.9 °F 53.1 °F 73% 30.04 in 10.0 mi East 4.6 mph - N/A   Clear
7:55 AM 63.7 °F 53.2 °F 69% 30.04 in 7.0 mi East 4.6 mph - N/A   Clear
8:15 AM 65.3 °F 52.3 °F 63% 30.02 in 7.0 mi ESE 6.9 mph - N/A   Clear
8:35 AM 66.4 °F 54.3 °F 65% 30.01 in 7.0 mi ESE 6.9 mph - N/A   Clear
8:55 AM 67.1 °F 54.7 °F 64% 30.02 in 7.0 mi East 6.9 mph - N/A   Clear
9:15 AM 68.5 °F 56.1 °F 64% 30.01 in 10.0 mi East 5.8 mph - N/A   Clear
9:35 AM 70.2 °F 57.0 °F 63% 30.01 in 10.0 mi East 5.8 mph - N/A   Clear
9:55 AM 71.2 °F 57.0 °F 61% 30.01 in 7.0 mi East 8.1 mph - N/A   Scattered Clouds
10:15 AM 72.0 °F 57.4 °F 60% 30.01 in 10.0 mi ESE 3.5 mph - N/A   Mostly Cloudy
10:35 AM 73.2 °F 59.0 °F 61% 30.01 in 7.0 mi ESE 4.6 mph - N/A   Scattered Clouds
10:55 AM 74.3 °F 59.4 °F 60% 30.01 in 10.0 mi East 4.6 mph - N/A   Scattered Clouds
11:15 AM 74.7 °F 58.3 °F 57% 30.01 in 10.0 mi ESE 3.5 mph - N/A   Scattered Clouds
11:35 AM 74.8 °F 59.0 °F 58% 30.01 in 10.0 mi Calm Calm - N/A   Mostly Cloudy
11:55 AM 77.2 °F 58.8 °F 53% 30.01 in 10.0 mi SSE 6.9 mph - N/A   Scattered Clouds
12:15 PM 76.8 °F 57.6 °F 51% 30.00 in 10.0 mi East 5.8 mph - N/A   Scattered Clouds
12:35 PM 76.1 °F 58.3 °F 54% 30.00 in 10.0 mi ESE 6.9 mph - N/A   Scattered Clouds
12:55 PM 75.7 °F 57.9 °F 54% 29.99 in 10.0 mi ESE 4.6 mph - N/A   Mostly Cloudy
1:15 PM 76.8 °F 58.5 °F 53% 29.99 in 10.0 mi ESE 5.8 mph - N/A   Mostly Cloudy
1:35 PM 77.5 °F 57.2 °F 49% 29.97 in 10.0 mi SE 4.6 mph - N/A   Scattered Clouds
1:55 PM 78.3 °F 56.7 °F 47% 29.97 in 7.0 mi ENE 3.5 mph - N/A   Clear
2:15 PM 79.3 °F 57.4 °F 47% 29.96 in 10.0 mi NE 3.5 mph - N/A   Scattered Clouds
2:35 PM 79.7 °F 56.8 °F 45% 29.95 in 10.0 mi NE 6.9 mph - N/A   Scattered Clouds
2:55 PM 78.8 °F 55.9 °F 45% 29.94 in 10.0 mi Calm Calm - N/A   Scattered Clouds
3:15 PM 78.8 °F 57.2 °F 47% 29.93 in 10.0 mi ENE 8.1 mph - N/A   Scattered Clouds
3:35 PM 77.4 °F 57.6 °F 50% 29.93 in 10.0 mi ENE 6.9 mph - N/A   Mostly Cloudy
3:55 PM 78.6 °F 56.5 °F 46% 29.92 in 10.0 mi ESE 4.6 mph - N/A   Mostly Cloudy
4:15 PM 77.4 °F 56.1 °F 48% 29.91 in 10.0 mi NE 3.5 mph - N/A   Mostly Cloudy
4:35 PM 78.8 °F 57.4 °F 48% 29.90 in 10.0 mi NE 6.9 mph - N/A   Scattered Clouds
4:55 PM 79.5 °F 57.2 °F 46% 29.90 in 10.0 mi East 5.8 mph - N/A   Scattered Clouds
5:15 PM 79.3 °F 55.6 °F 44% 29.89 in 10.0 mi NE 3.5 mph - N/A   Scattered Clouds
5:35 PM 79.2 °F 54.5 °F 42% 29.89 in 10.0 mi SSE 3.5 mph - N/A   Clear
5:55 PM 79.0 °F 56.1 °F 45% 29.88 in 10.0 mi East 3.5 mph - N/A   Clear
6:15 PM 78.8 °F 56.1 °F 46% 29.88 in 10.0 mi ENE 6.9 mph - N/A   Clear
6:35 PM 78.3 °F 56.7 °F 47% 29.88 in 10.0 mi ENE 5.8 mph - N/A   Clear
6:55 PM 77.0 °F 57.9 °F 52% 29.88 in 10.0 mi East 4.6 mph - N/A   Clear
7:15 PM 75.6 °F 58.1 °F 55% 29.88 in 10.0 mi Calm Calm - N/A   Clear
7:35 PM 73.4 °F 60.3 °F 63% 29.89 in 10.0 mi Calm Calm - N/A   Clear
7:55 PM 72.1 °F 60.4 °F 67% 29.89 in 10.0 mi Calm Calm - N/A   Clear
8:15 PM 71.1 °F 62.2 °F 74% 29.89 in 7.0 mi Calm Calm - N/A   Scattered Clouds
8:35 PM 70.9 °F 60.1 °F 69% 29.89 in 10.0 mi ENE 3.5 mph - N/A   Clear
8:55 PM 70.2 °F 59.9 °F 70% 29.89 in 10.0 mi ENE 3.5 mph - N/A   Clear
9:15 PM 68.5 °F 59.2 °F 72% 29.89 in 10.0 mi Calm Calm - N/A   Clear
9:35 PM 68.2 °F 61.7 °F 80% 29.90 in 10.0 mi Calm Calm - N/A   Clear
9:55 PM 68.9 °F 59.0 °F 71% 29.90 in 10.0 mi Calm Calm - N/A   Scattered Clouds
10:15 PM 68.2 °F 60.3 °F 76% 29.90 in 10.0 mi Calm Calm - N/A   Clear
10:35 PM 67.3 °F 60.1 °F 78% 29.89 in 10.0 mi North 3.5 mph - N/A   Clear
10:55 PM 67.5 °F 60.1 °F 77% 29.89 in 10.0 mi Calm Calm - N/A   Clear
11:15 PM 68.0 °F 58.6 °F 72% 29.88 in 10.0 mi NE 3.5 mph - N/A   Clear
11:35 PM 67.6 °F 58.3 °F 72% 29.87 in 7.0 mi NE 4.6 mph - N/A   Clear
11:55 PM 67.5 °F 58.6 °F 73% 29.87 in 7.0 mi NNE 3.5 mph - N/A   Clear